Volver al catálogo

STARLINK-31626

ActivoComunicacionesVLEO
NORAD 59392·PAYLOAD·🇺🇸 United States

Lanzado Apr 2, 2024 desde Vandenberg Space Force Base

Loading…

Próximos Pases (próximas 24 horas)

TLE

ActualizadoSource: CelesTrak SupGP

Época: Sep 15, 2026, 01:53 UTC

1 59392C 24062U   26258.07895833  .00018456  00000+0  54531-3 0  2580
2 59392  53.1568  93.1836 0001301  84.4460  38.2694 15.34380023    11

Sigue STARLINK-31626 en tiempo real con AllMySat

Download on the App Store